Regional Weather Roundup
Issued by NWS Cleveland, OH

Home | Current Version | Previous Version | Text Only | Print | Product List | Glossary On
Versions: 1 2 3 4 5 6 7 8 9 10 11 12 13 14 15 16 17 18 19 20 21 22 23 24 25 26 27 28 29 30 31 32 33 34 35 36 37 38 39 40 41 42 43 44 45 46 47 48 49 50
000
ASUS41 KCLE 011100
RWRCLE
OHIO REGIONAL WEATHER ROUNDUP
NATIONAL WEATHER SERVICE WILMINGTON, OH
700 AM EDT WED OCT 01 2014

NOTE: "FAIR" INDICATES FEW OR NO CLOUDS BELOW 12,000 FEET WITH NO
SIGNIFICANT WEATHER AND/OR OBSTRUCTIONS TO VISIBILITY.

OHZ001>008-015>018-024>027-034-035-043-044-011200-
   NORTHWEST OHIO

CITY           SKY/WX    TMP DP  RH WIND       PRES   REMARKS
DEFIANCE       FOG       45  43  93 N5        30.03S VSB 1/2
FINDLAY        MOCLDY    48  45  89 S5        30.01R
TOLEDO EXPRESS CLEAR     47  46  97 CALM      30.03R
TOLEDO METCALF PTCLDY    48  45  89 CALM      30.03R
LIMA           FOG       49  46  90 CALM      30.01S VSB 3/4
$$

OHZ009>014-019>023-028>033-038-089-011200-
   NORTHEAST OHIO

CITY           SKY/WX    TMP DP  RH WIND       PRES   REMARKS
CLE-HOPKINS    MOCLDY    57  54  89 CALM      30.03R
CLE-LAKEFRONT  CLOUDY    60  54  80 E3        30.01R
CUY CO. ARPT   MOCLDY    59  57  94 CALM      30.02
LORAIN-ELYRIA  CLOUDY    58  53  84 CALM      30.02R
ASHTABULA      FOG       48  47  96 CALM      30.01R VSB 1/4
AKRON-CANTON   CLOUDY    56  53  90 N7        30.00R
WOOSTER        NOT AVBL
MANSFIELD      CLOUDY    51  51 100 NW5       30.02R
YOUNGSTOWN     FOG       54  54 100 CALM      30.00S VSB 1/8
$$

OHZ042-051>053-060>062-070>072-077>081-011200-
  SOUTHWEST OHIO

CITY           SKY/WX    TMP DP  RH WIND       PRES   REMARKS
CINC-COVINGTON CLEAR     52  48  86 NE3       29.99R
CINC-LUNKEN    CLEAR     44  44 100 CALM      30.01R
HAMILTON       CLEAR     40  39  97 CALM      30.01S
DAYTON         CLOUDY    48  47  96 CALM      30.01S FOG
WRIGHT-PAT AFB FOG       48  48 100 CALM      30.00S VSB 1
DAYTON GENERAL CLEAR     45  44  97 NE8       29.99S
WILMINGTON     CLOUDY    48  47  96 NE5       30.00S FOG
$$

OHZ036-037-039>041-045>050-054>059-063>069-073>076-082>088-011200-
  CENTRAL AND SOUTHEAST OHIO

CITY           SKY/WX    TMP DP  RH WIND       PRES   REMARKS
COLUMBUS       CLOUDY    53  51  93 E6        30.00R
OSU AIRPORT    FOG       49  48  97 N6        30.01R VSB 1/2
BOLTON FIELD   NOT AVBL
RICKENBACK AFB NOT AVBL
NEWARK         CLOUDY    54  51  90 CALM      30.00R FOG
MARION         FOG       48  47  96 CALM      30.02R VSB 1/4
LANCASTER      CLOUDY    54  52  93 CALM      30.00S FOG
ZANESVILLE     CLOUDY    55  52  89 N3        29.99S FOG
NEW PHILLY     CLOUDY    56  55  97 CALM      30.00R FOG
$$


USA.gov is the U.S. government's official web portal to all federal, state and local government web resources and services.